Location: Fort Wayne
(41.1310°N, 85.1290°W)
Time: 10:53:39
(UTC-04:00)

Meteor 2-10 Rocket - Visible Passes

Search period start: 28 May 2017 00:00
Search period end: 07 June 2017 00:00
Orbit: 733 x 886 km, 81.2° (Epoch: 27 May)

Date Brightness Start Highest point End Pass type
(mag) Time Alt. Az. Time Alt. Az. Time Alt. Az.
28 May 6.1 03:48:32 10° NNE 03:51:48 17° ENE 03:55:03 10° ESE visible
28 May 3.6 05:29:20 10° NNW 05:34:11 52° W 05:39:05 10° S visible
29 May 6.3 03:25:22 10° NE 03:27:16 12° ENE 03:29:10 10° E visible
29 May 3.4 05:04:55 10° NNW 05:09:56 76° W 05:14:59 10° S visible
30 May 3.6 04:40:37 10° N 04:45:39 75° E 04:50:43 10° SSE visible
31 May 4.2 04:16:25 10° N 04:21:19 52° ENE 04:26:16 10° SSE visible
01 Jun 4.8 03:52:19 10° N 03:56:57 36° ENE 04:01:38 10° SE visible
01 Jun 4.6 05:34:50 10° NW 05:38:46 23° W 05:42:45 10° SW visible
02 Jun 5.4 03:28:21 10° NNE 03:32:32 26° ENE 03:36:47 10° SE visible
02 Jun 4.2 05:10:07 10° NNW 05:14:36 33° W 05:19:09 10° SSW visible
03 Jun 5.8 03:04:34 10° NNE 03:08:05 19° ENE 03:11:38 10° ESE visible
03 Jun 3.7 04:45:34 10° NNW 04:50:24 48° W 04:55:06 11° SSW visible
04 Jun 6.1 02:41:11 10° NE 02:43:35 13° ENE 02:45:59 10° E visible
04 Jun 3.4 04:21:09 10° NNW 04:26:10 70° W 04:30:22 15° S visible
05 Jun 3.5 03:56:49 10° N 04:01:53 82° E 04:05:43 18° SSE visible
06 Jun 4.0 03:32:35 10° N 03:37:34 57° ENE 03:41:06 20° SSE visible
06 Jun 5.2 05:16:12 10° NW 05:19:05 15° W 05:22:01 10° WSW visible
